NOAA 17 DEB, 48719

Orbit data source: Space-Track

NOAA 17 DEB, 48719 is space debris in SSO originally from a launch on Mon, 24 Jun 2002 UTC launched from the Air Force Western Test Range (AFWTR). Debris objects in space refer to the collection of defunct objects orbiting the Earth. Examples of debris include non-operational satellites, rocket bodies, and fragments generated from explosions, collisions, or faulty payload assembly.

Loading next visibility...
Identifier
48719, 2002-032BC
Orbit
SSO
Country
Flag of USUS
Related business
Manufacturer
Unknown
Mission
Spacecraft
Bus & Motor
Unknown
Mass
Unknown
Launch date (UTC)
2002-06-24 (23 years ago)
Launch vehicle
Unknown
Launch site
Air Force Western Test Range (AFWTR)
Object type
Payload
Rocket body
Debris
Shape & HBR
Unknown shape, 0.1 m
Radar Cross Section
Small (<0.1 m²)

Expand to show TLE details & history
Last TLE update: 1 day ago

TLE from 1 day ago
0 NOAA 17 DEB
1 48719U 02032BC  25348.98370014  .00000725  00000-0  66283-3 0  9992
2 48719  98.4149  80.6800 0321628 269.3502  87.0788 13.65040434236242
Epoch: 2025-12-14T23:36Z
TLE epoch observation values (Epoch: 2025-12-14T23:36:31.692Z)
Latitude
-0.00008°
Longitude
2.65917°
Altitude
1,015.802 km
Speed
7.346 km/s
True Right ascension
05h 22m 43s
True Declination
0° 00' 00"
Sunlit
Object was in full shadow at epoch
Visualization orbit readout
Latitude
Unknown
Longitude
Unknown
Altitude
Unknown
Speed
Unknown
Apparent Right ascension
Unknown
Apparent Declination
Unknown
Sunlit
N/A
Visualization observer readout
Local Sidereal Time
22:47:50
Azimuth
Unknown
Elevation
Unknown
Doppler factor
Unknown
Orbital elements
Apogee altitude
1,252.418 km
Perigee altitude
776.873 km
Semi-major axis
7,392.782 km
Eccentricity
0.03216
Inclination
98.4149°
RAAN
80.68°
Arg. of periapsis
269.3502°
True anomaly
90.76461°
Mean anomaly
87.0788°
Eccentric anomaly
88.92127°
Mean motion
3.41453 °/min
Orbital period
105.43 mins
BSTAR
0.00066283
Loading maneuver chart data...
Computing Atmospheric mass density...

Documentation

Showing up to 5 results
|